GW1618 Weather Reports


time (UTC)temp
C
wind
direction
speed
KPH
gust
KPH
rain 1hr
cm
rain 24hr
cm
rain mn
cm
humidity
%
barometer
mb
20260510202718 16 308 16.1 29.0 0.00 0.00 0.00 54 1018.7
20260510202212 16 266 16.1 29.0 0.00 0.00 0.00 54 1018.7
20260510201707 16 283 14.5 29.0 0.00 0.00 0.00 53 1018.6
20260510201207 17 327 9.7 24.1 0.00 0.00 0.00 53 1018.6
20260510200706 17 271 6.4 17.7 0.00 0.00 0.00 51 1018.6
20260510200207 17 256 4.8 11.3 0.00 0.00 0.00 51 1018.6
20260510200035 17 322 6.4 14.5 0.00 0.00 0.00 51 1018.6
20260510194722 16 191 6.4 17.7 0.00 0.00 0.00 53 1018.6
20260510193704 16 198 8.0 20.9 0.00 0.00 0.00 54 1018.6
20260510193204 16 227 11.3 22.5 0.00 0.00 0.00 54 1018.4
20260510192705 16 304 11.3 24.1 0.00 0.00 0.00 54 1018.4
20260510192203 17 320 9.7 24.1 0.00 0.00 0.00 53 1018.4
20260510191703 17 246 8.0 17.7 0.00 0.00 0.00 53 1018.4
20260510191205 16 261 8.0 17.7 0.00 0.00 0.00 53 1018.4
20260510190704 16 186 8.0 16.1 0.00 0.00 0.00 56 1018.4
20260510190205 16 271 8.0 19.3 0.00 0.00 0.00 56 1018.4
20260510185700 16 234 6.4 19.3 0.00 0.00 0.00 57 1018.4
20260510185202 15 181 6.4 16.1 0.00 0.00 0.00 57 1018.4
20260510184702 15 207 8.0 19.3 0.00 0.00 0.00 58 1018.6
20260510184201 15 210 8.0 19.3 0.00 0.00 0.00 58 1018.6
20260510183704 15 177 6.4 12.9 0.00 0.00 0.00 59 1018.6
20260510183452 15 209 6.4 11.3 0.00 0.00 0.00 61 1018.2
20260510182703 15 210 8.0 17.7 0.00 0.00 0.00 60 1018.2
20260510182202 15 186 8.0 17.7 0.00 0.00 0.00 60 1018.2
20260510181702 15 223 8.0 19.3 0.00 0.00 0.00 59 1018.3
20260510181200 15 268 11.3 20.9 0.00 0.00 0.00 59 1018.3
20260510180702 15 22 9.7 20.9 0.00 0.00 0.00 58 1018.3
20260510180204 15 304 8.0 17.7 0.00 0.00 0.00 58 1018.3
20260510175702 15 271 6.4 17.7 0.00 0.00 0.00 60 1018.3
20260510175155 15 277 4.8 11.3 0.00 0.00 0.00 62 1018.3
20260510174647 14 245 4.8 11.3 0.00 0.00 0.00 63 1018.3
20260510174142 14 196 6.4 19.3 0.00 0.00 0.00 64 1018.3
20260510173631 14 257 9.7 19.3 0.00 0.00 0.00 63 1018.3
20260510173130 14 232 8.0 17.7 0.00 0.00 0.00 62 1017.9
20260510172629 14 273 6.4 17.7 0.00 0.00 0.00 62 1017.9
20260510172128 14 31 8.0 16.1 0.00 0.00 0.00 64 1017.9
20260510171920 14 315 8.0 16.1 0.00 0.00 0.00 63 1018.0
20260510171420 14 337 6.4 12.9 0.00 0.00 0.00 65 1018.0
20260510170629 13 182 8.0 14.5 0.00 0.00 0.00 68 1018.0
20260510170130 13 196 8.0 16.1 0.00 0.00 0.00 70 1018.0
20260510165631 13 197 6.4 16.1 0.00 0.00 0.00 71 1018.0
20260510165132 13 236 4.8 14.5 0.00 0.00 0.00 71 1018.0
20260510164621 13 262 4.8 14.5 0.00 0.00 0.00 73 1018.1
20260510164358 13 186 4.8 9.7 0.00 0.00 0.00 73 1018.1
20260510163606 13 221 4.8 9.7 0.00 0.00 0.00 74 1018.1
20260510163108 12 204 6.4 9.7 0.00 0.00 0.00 75 1018.1
20260510162609 12 146 6.4 11.3 0.00 0.00 0.00 76 1018.1
20260510162103 12 233 6.4 11.3 0.00 0.00 0.00 77 1018.1
20260510161604 12 188 6.4 9.7 0.00 0.00 0.00 77 1018.0
20260510161103 12 181 4.8 8.0 0.00 0.00 0.00 78 1018.0
20260510160604 12 202 3.2 8.0 0.00 0.00 0.00 78 1018.0
20260510155602 12 148 1.6 4.8 0.00 0.00 0.00 79 1017.4
20260510155103 11 212 3.2 8.0 0.00 0.00 0.00 80 1017.4
20260510154602 11 204 4.8 9.7 0.00 0.00 0.00 80 1017.2
20260510154102 11 227 4.8 9.7 0.00 0.00 0.00 80 1017.2
20260510153600 11 266 1.6 6.4 0.00 0.00 0.00 80 1017.2
20260510153103 11 223 0.0 4.8 0.00 0.00 0.00 81 1017.0
20260510152602 11 179 1.6 6.4 0.00 0.00 0.00 82 1017.0
20260510152103 11 191 3.2 8.0 0.00 0.00 0.00 82 1017.0
20260510151603 11 212 1.6 8.0 0.00 0.00 0.00 83 1017.5
20260510151104 11 262 1.6 4.8 0.00 0.00 0.00 83 1017.5
20260510150602 11 173 3.2 4.8 0.00 0.00 0.00 84 1017.5
20260510145601 11 221 1.6 4.8 0.00 0.00 0.00 84 1017.5
20260510145102 10 211 1.6 4.8 0.00 0.00 0.00 85 1017.5
20260510144602 10 225 1.6 3.2 0.00 0.00 0.00 85 1017.1
20260510144104 10 97 0.0 1.6 0.00 0.00 0.00 85 1017.1
20260510143840 10 97 1.6 3.2 0.00 0.00 0.00 90 1017.1
20260510143107 10 98 3.2 4.8 0.00 0.00 0.00 86 1017.0
20260510142602 10 21 3.2 6.4 0.00 0.00 0.00 86 1017.0
20260510142041 10 30 3.2 6.4 0.00 0.00 0.00 86 1017.4
20260510141539 10 336 1.6 4.8 0.00 0.00 0.00 86 1017.4
20260510141041 10 359 3.2 4.8 0.00 0.00 0.00 86 1017.4
20260510140538 10 309 1.6 4.8 0.00 0.00 0.00 86 1017.5
20260510140036 10 235 3.2 6.4 0.00 0.00 0.00 87 1017.5
20260510135816 10 268 3.2 6.4 0.00 0.00 0.00 86 1017.5
20260510135034 10 273 1.6 4.8 0.00 0.00 0.00 87 1017.3
20260510134535 10 219 1.6 8.0 0.00 0.00 0.00 87 1017.3
20260510134036 10 205 3.2 8.0 0.00 0.00 0.00 87 1017.3
20260510133531 10 258 1.6 6.4 0.00 0.00 0.00 87 1016.7
20260510133302 10 216 1.6 4.8 0.00 0.00 0.00 87 1016.7
20260510132526 10 327 1.6 4.8 0.00 0.00 0.00 87 1016.7
20260510132300 10 167 1.6 3.2 0.00 0.00 0.00 87 1016.7
20260510131513 10 84 1.6 3.2 0.00 0.00 0.00 87 1016.7
20260510131017 10 92 1.6 3.2 0.00 0.00 0.00 87 1016.7
20260510130504 10 303 1.6 4.8 0.00 0.00 0.00 87 1017.0
20260510130004 10 248 3.2 4.8 0.00 0.00 0.00 87 1017.0
20260510125459 10 122 1.6 4.8 0.00 0.00 0.00 87 1017.0
20260510124945 10 162 1.6 4.8 0.00 0.00 0.00 86 1017.0
20260510124429 10 164 3.2 6.4 0.00 0.00 0.00 86 1017.0
20260510123929 10 142 3.2 6.4 0.00 0.00 0.00 86 1017.0
20260510123432 10 149 3.2 8.0 0.00 0.00 0.00 87 1017.2
20260510122931 10 147 3.2 8.0 0.00 0.00 0.00 87 1017.2
20260510122430 10 185 3.2 6.4 0.00 0.00 0.00 87 1017.2
20260510121928 10 151 3.2 6.4 0.00 0.00 0.00 87 1017.1
20260510121431 10 142 4.8 8.0 0.00 0.00 0.00 86 1017.1
20260510120930 10 173 4.8 8.0 0.00 0.00 0.00 86 1017.1
20260510120430 10 178 4.8 6.4 0.00 0.00 0.00 86 1017.0
20260510115930 10 154 3.2 6.4 0.00 0.00 0.00 86 1017.0
20260510115429 10 205 1.6 6.4 0.00 0.00 0.00 86 1017.0
20260510114938 10 243 3.2 9.7 0.00 0.00 0.00 86 1016.9
20260510114429 10 206 4.8 9.7 0.00 0.00 0.00 86 1016.9
20260510113929 10 213 3.2 6.4 0.00 0.00 0.00 86 1016.9
20260510113429 10 168 3.2 8.0 0.00 0.00 0.00 86 1016.6
20260510112930 10 208 4.8 8.0 0.00 0.00 0.00 86 1016.6
20260510112428 10 214 4.8 8.0 0.00 0.00 0.00 86 1016.6
20260510111956 10 216 4.8 8.0 0.00 0.00 0.00 85 1016.5
20260510111228 10 141 4.8 8.0 0.00 0.00 0.00 85 1016.5
20260510110429 10 159 3.2 8.0 0.00 0.00 0.00 85 1016.8
20260510105930 10 213 3.2 8.0 0.00 0.00 0.00 86 1016.8
20260510105434 10 161 3.2 8.0 0.00 0.00 0.00 86 1016.8
20260510104927 10 181 3.2 6.4 0.00 0.00 0.00 86 1016.6
20260510104417 11 173 3.2 4.8 0.00 0.00 0.00 86 1016.6
20260510103905 11 175 3.2 6.4 0.00 0.00 0.00 86 1016.6
20260510103405 11 202 3.2 6.4 0.00 0.00 0.00 86 1016.2
20260510102857 11 232 3.2 6.4 0.00 0.00 0.00 86 1016.2
20260510102345 11 264 1.6 6.4 0.00 0.00 0.00 86 1016.2
20260510101841 11 188 1.6 6.4 0.00 0.00 0.00 86 1016.0
20260510101331 11 188 3.2 6.4 0.00 0.00 0.00 86 1016.0
20260510100824 11 192 1.6 6.4 0.00 0.00 0.00 86 1016.0
20260510100322 11 244 1.6 4.8 0.00 0.00 0.00 85 1016.0
20260510095819 11 189 1.6 3.2 0.00 0.00 0.00 85 1016.0
20260510095315 11 185 3.2 4.8 0.00 0.00 0.00 85 1016.0
20260510094813 11 152 3.2 6.4 0.00 0.00 0.00 85 1016.2
20260510094309 11 156 3.2 6.4 0.00 0.00 0.00 86 1016.2
20260510093803 11 204 1.6 4.8 0.00 0.00 0.00 86 1016.2
20260510093537 11 238 3.2 4.8 0.00 0.00 0.00 86 1016.1
20260510093042 11 227 3.2 4.8 0.00 0.00 0.00 86 1016.1
20260510092301 11 250 3.2 4.8 0.00 0.00 0.00 86 1016.1
20260510091806 11 240 3.2 4.8 0.00 0.00 0.00 85 1016.0
20260510091303 11 265 1.6 4.8 0.00 0.00 0.00 85 1016.0
20260510090804 11 199 1.6 3.2 0.00 0.00 0.00 85 1016.0
20260510090301 11 261 0.0 3.2 0.00 0.00 0.00 85 1016.1
20260510085802 11 266 1.6 4.8 0.00 0.00 0.00 85 1016.1
20260510085255 12 266 3.2 4.8 0.00 0.00 0.00 85 1016.1
20260510085028 12 257 3.2 8.0 0.00 0.00 0.00 85 1016.0
20260510084239 12 207 3.2 8.0 0.00 0.00 0.00 85 1016.0
20260510084025 12 212 1.6 4.8 0.00 0.00 0.00 84 1016.0
20260510083233 12 229 1.6 4.8 0.00 0.00 0.00 84 1016.0
20260510082730 12 223 1.6 3.2 0.00 0.00 0.00 84 1016.0
20260510082231 12 256 3.2 6.4 0.00 0.00 0.00 84 1016.0
20260510081730 12 246 4.8 6.4 0.00 0.00 0.00 84 1015.9
20260510081230 12 245 3.2 6.4 0.00 0.00 0.00 84 1015.9
20260510080733 12 215 3.2 6.4 0.00 0.00 0.00 84 1015.9
20260510080228 12 230 3.2 8.0 0.00 0.00 0.00 84 1015.7
20260510080019 12 232 4.8 8.0 0.00 0.00 0.00 84 1015.7
20260510075227 13 243 4.8 8.0 0.00 0.00 0.00 84 1015.7
20260510074726 13 246 1.6 8.0 0.00 0.00 0.00 84 1015.5
20260510074223 12 244 0.0 3.2 0.00 0.00 0.00 83 1015.5
20260510073722 13 9 0.0 1.6 0.00 0.00 0.00 83 1015.5
20260510073441 13 9 0.0 1.6 0.00 0.00 0.00 83 1015.5
20260510072938 13 9 1.6 3.2 0.00 0.00 0.00 82 1015.5
20260510072203 13 9 1.6 3.2 0.00 0.00 0.00 82 1015.5
20260510071137 13 9 0.0 3.2 0.00 0.00 0.00 81 1015.5
20260510070630 13 9 0.0 1.6 0.00 0.00 0.00 80 1015.5
20260510070127 13 9 1.6 3.2 0.00 0.00 0.00 80 1015.4
20260510065622 13 9 1.6 3.2 0.00 0.00 0.00 80 1015.4
20260510065118 13 9 1.6 3.2 0.00 0.00 0.00 80 1015.4
20260510064606 13 9 0.0 1.6 0.00 0.00 0.00 80 1015.4
20260510064102 13 9 1.6 1.6 0.00 0.00 0.00 80 1015.4
20260510063602 13 9 1.6 3.2 0.00 0.00 0.00 80 1015.5
20260510063051 13 9 0.0 3.2 0.00 0.00 0.00 79 1015.5
20260510062545 13 9 0.0 1.6 0.00 0.00 0.00 79 1015.5
20260510062032 13 9 0.0 1.6 0.00 0.00 0.00 79 1015.5
20260510061531 13 9 0.0 1.6 0.00 0.00 0.00 78 1015.5
20260510061032 13 9 0.0 3.2 0.00 0.00 0.00 78 1015.5
20260510060539 13 9 0.0 3.2 0.00 0.00 0.00 77 1015.7
20260510060031 13 9 0.0 3.2 0.00 0.00 0.00 76 1015.7
20260510055529 13 9 1.6 3.2 0.00 0.00 0.00 76 1015.7
20260510055020 14 9 3.2 4.8 0.00 0.00 0.00 75 1015.6
20260510054517 14 9 1.6 4.8 0.00 0.00 0.00 75 1015.6
20260510054014 14 354 1.6 3.2 0.00 0.00 0.00 75 1015.6
20260510053750 14 354 1.6 3.2 0.00 0.00 0.00 74 1015.5
20260510053005 14 354 1.6 3.2 0.00 0.00 0.00 74 1015.5
20260510052506 14 354 1.6 3.2 0.00 0.00 0.00 75 1015.5
20260510051959 15 359 1.6 3.2 0.00 0.00 0.00 75 1015.4
20260510051459 15 359 1.6 3.2 0.00 0.00 0.00 72 1015.4
20260510050955 15 354 1.6 3.2 0.00 0.00 0.00 72 1015.4
20260510050455 15 352 1.6 3.2 0.00 0.00 0.00 71 1015.4
20260510045956 15 352 1.6 3.2 0.00 0.00 0.00 71 1015.4
20260510045454 15 352 1.6 3.2 0.00 0.00 0.00 70 1015.4
20260510044951 15 352 1.6 3.2 0.00 0.00 0.00 72 1015.2
20260510044446 15 353 1.6 3.2 0.00 0.00 0.00 70 1015.2
20260510043947 15 359 1.6 4.8 0.00 0.00 0.00 69 1015.2
20260510043436 15 351 3.2 4.8 0.00 0.00 0.00 68 1015.2
20260510042931 16 346 3.2 4.8 0.00 0.00 0.00 67 1015.2
20260510042431 16 349 3.2 4.8 0.00 0.00 0.00 69 1015.2
20260510041931 16 348 3.2 4.8 0.00 0.00 0.00 68 1015.2
20260510041433 16 9 3.2 4.8 0.00 0.00 0.00 66 1015.2
20260510040930 16 4 1.6 3.2 0.00 0.00 0.00 63 1015.2
20260510040706 16 4 0.0 1.6 0.00 0.00 0.00 62 1015.1
20260510035931 16 4 1.6 1.6 0.00 0.00 0.00 62 1015.1
20260510035427 17 4 1.6 3.2 0.00 0.00 0.00 64 1015.1
20260510034922 17 4 1.6 3.2 0.00 0.00 0.00 62 1015.1
20260510034641 17 359 1.6 4.8 0.00 0.00 0.00 61 1015.1
20260510033902 17 359 3.2 4.8 0.00 0.00 0.00 60 1015.1
20260510033403 17 4 3.2 6.4 0.00 0.00 0.00 61 1015.0
20260510033144 17 13 4.8 6.4 0.00 0.00 0.00 60 1015.0
20260510032402 17 22 4.8 6.4 0.00 0.00 0.00 59 1015.0
20260510031902 18 16 3.2 6.4 0.00 0.00 0.00 59 1015.0
20260510031651 18 359 3.2 6.4 0.00 0.00 0.00 59 1015.0
20260510030902 18 28 4.8 6.4 0.00 0.00 0.00 55 1015.0
20260510030401 18 359 4.8 8.0 0.00 0.00 0.00 54 1014.9
20260510025902 18 338 4.8 8.0 0.00 0.00 0.00 54 1014.9
20260510025401 18 354 4.8 6.4 0.00 0.00 0.00 54 1014.9
20260510024901 19 13 3.2 6.4 0.00 0.00 0.00 53 1015.0
20260510024402 20 17 3.2 8.0 0.00 0.00 0.00 51 1015.0
20260510023904 20 48 3.2 8.0 0.00 0.00 0.00 48 1015.0
20260510023404 20 47 4.8 9.7 0.00 0.00 0.00 47 1015.0
20260510022905 20 92 6.4 11.3 0.00 0.00 0.00 46 1015.0
20260510022403 20 56 6.4 11.3 0.00 0.00 0.00 46 1015.0
20260510021902 20 82 6.4 9.7 0.00 0.00 0.00 45 1015.2
20260510021428 20 78 6.4 9.7 0.00 0.00 0.00 45 1015.2
20260510020403 20 111 6.4 9.7 0.00 0.00 0.00 45 1015.4
20260510015901 20 81 6.4 9.7 0.00 0.00 0.00 44 1015.4
20260510015403 20 150 4.8 9.7 0.00 0.00 0.00 43 1015.4
20260510014928 20 77 4.8 8.0 0.00 0.00 0.00 43 1015.5
20260510013902 20 86 4.8 9.7 0.00 0.00 0.00 43 1015.5
20260510013402 20 98 6.4 9.7 0.00 0.00 0.00 43 1015.8
20260510012901 20 44 6.4 11.3 0.00 0.00 0.00 43 1015.8
20260510012403 20 54 6.4 11.3 0.00 0.00 0.00 42 1015.8
20260510011903 20 88 4.8 11.3 0.00 0.00 0.00 42 1016.0
20260510011429 20 71 4.8 9.7 0.00 0.00 0.00 42 1016.0
20260510010403 20 50 4.8 11.3 0.00 0.00 0.00 43 1016.1
20260510005903 20 75 4.8 9.7 0.00 0.00 0.00 45 1016.1
20260510005404 20 9 6.4 9.7 0.00 0.00 0.00 42 1016.1
20260510004903 20 69 6.4 9.7 0.00 0.00 0.00 44 1016.2
20260510004655 20 4 4.8 8.0 0.00 0.00 0.00 44 1016.2
20260510003851 20 355 3.2 8.0 0.00 0.00 0.00 46 1016.2
20260510003344 20 92 4.8 9.7 0.00 0.00 0.00 47 1016.4
20260510002840 20 4 6.4 9.7 0.00 0.00 0.00 45 1016.4
20260510002336 20 351 6.4 12.9 0.00 0.00 0.00 47 1016.4
20260510001837 20 359 6.4 12.9 0.00 0.00 0.00 47 1016.5
20260510001631 19 4 6.4 9.7 0.00 0.00 0.00 47 1016.5
20260510000838 19 15 6.4 11.3 0.00 0.00 0.00 47 1016.5
20260510000622 19 15 6.4 11.3 0.00 0.00 0.00 47 1016.7
20260509235831 19 359 6.4 11.3 0.00 0.00 0.00 46 1016.7
20260509235331 19 17 6.4 9.7 0.00 0.00 0.00 47 1016.7
20260509234832 19 4 6.4 9.7 0.00 0.00 0.00 48 1017.0
20260509234331 19 9 6.4 11.3 0.00 0.00 0.00 47 1017.0
20260509233832 19 350 8.0 11.3 0.00 0.00 0.00 47 1017.0
20260509233331 19 344 8.0 11.3 0.00 0.00 0.00 47 1017.0
20260509232829 19 13 8.0 11.3 0.00 0.00 0.00 45 1017.0
20260509232330 19 9 6.4 11.3 0.00 0.00 0.00 46 1017.0
20260509231829 19 9 6.4 11.3 0.00 0.00 0.00 46 1017.2
20260509231645 19 342 8.0 11.3 0.00 0.00 0.00 46 1017.2
20260509230338 18 4 8.0 11.3 0.00 0.00 0.00 47 1017.5
20260509225834 18 359 8.0 11.3 0.00 0.00 0.00 50 1017.5
20260509225615 18 359 6.4 11.3 0.00 0.00 0.00 51 1017.5
20260509224829 18 26 6.4 11.3 0.00 0.00 0.00 50 1017.6
20260509224330 18 4 6.4 9.7 0.00 0.00 0.00 51 1017.6
20260509223823 18 4 6.4 8.0 0.00 0.00 0.00 51 1017.6
20260509223321 18 332 6.4 9.7 0.00 0.00 0.00 52 1018.0
20260509222823 18 359 8.0 9.7 0.00 0.00 0.00 53 1018.0
20260509222319 18 347 8.0 9.7 0.00 0.00 0.00 52 1018.0
20260509221819 18 21 8.0 11.3 0.00 0.00 0.00 53 1018.1
20260509221318 18 9 8.0 11.3 0.00 0.00 0.00 53 1018.1
20260509220818 18 4 8.0 11.3 0.00 0.00 0.00 53 1018.1
20260509220318 18 28 8.0 11.3 0.00 0.00 0.00 52 1018.5
20260509215815 18 30 8.0 11.3 0.00 0.00 0.00 52 1018.5
20260509215315 18 4 8.0 11.3 0.00 0.00 0.00 53 1018.5
20260509214815 17 9 8.0 11.3 0.00 0.00 0.00 53 1018.6
20260509214313 17 4 9.7 12.9 0.00 0.00 0.00 54 1018.6
20260509214058 17 19 8.0 12.9 0.00 0.00 0.00 55 1018.6
20260509213313 17 26 8.0 11.3 0.00 0.00 0.00 57 1018.6
20260509212816 17 341 9.7 11.3 0.00 0.00 0.00 58 1018.6
20260509212311 17 359 9.7 12.9 0.00 0.00 0.00 55 1018.6
20260509211806 17 9 9.7 11.3 0.00 0.00 0.00 57 1018.7
20260509211259 16 16 9.7 11.3 0.00 0.00 0.00 56 1018.7
20260509211038 16 13 9.7 14.5 0.00 0.00 0.00 57 1018.7
20260509210243 16 9 9.7 14.5 0.00 0.00 0.00 58 1019.0
20260509205741 16 9 9.7 14.5 0.00 0.00 0.00 57 1019.0
20260509205240 16 9 9.7 14.5 0.00 0.00 0.00 59 1019.0
20260509205026 16 14 11.3 14.5 0.00 0.00 0.00 59 1019.1
20260509204237 16 15 9.7 12.9 0.00 0.00 0.00 59 1019.1
20260509203737 16 9 9.7 16.1 0.00 0.00 0.00 60 1019.1
20260509203236 16 359 9.7 16.1 0.00 0.00 0.00 59 1019.1